Valley City, ND

7:28 AM CST on November 19, 2019 (GMT -0600)
Valley City

Weather History for KBAC - August, 2019

Change the Weather History Date:

Sunday, August 18, 2019

  Actual Average (KJMS) Record (KJMS)
Temperature  
Mean Temperature 60 °F -  
Max Temperature 71 °F 81 °F 104 °F (1959)
Min Temperature 50 °F 55 °F 38 °F (2002)
Degree Days  
Heating Degree Days 4    
Growing Degree Days 10 (Base 50)    
Moisture  
Dew Point 51 °F    
Average Humidity 75    
Maximum Humidity 100    
Minimum Humidity 38    
Precipitation  
Precipitation 0.00 in - - ()
Sea Level Pressure  
Sea Level Pressure 29.86 in    
Wind  
Wind Speed 10 mph (West)    
Max Wind Speed 15 mph    
Max Gust Speed 21 mph    
Visibility 10 miles    
Events      
Averages and records for this station are not official NWS values.
T = Trace of Precipitation, MM = Missing Value Source: NWS Daily Summary

Daily Weather History Graph

Daily Weather History Graph

Search for Another Location

Airport or City:

Astronomy

Aug. 18, 2019 Rise Set
Actual Time 6:33 AM CDT 8:37 PM CDT
Civil Twilight 6:00 AM CDT 9:10 PM CDT
Nautical Twilight 5:19 AM CDT 9:51 PM CDT
Astronomical Twilight 4:33 AM CDT 10:36 PM CDT
Moon 10:22 PM CDT (8/18) 9:27 AM CDT (8/18)
Length of Visible Light 15h 10m
Length of Day
14h 04m
Waning Gibbous, 91% of the Moon is Illuminated
Aug 18
Waning Gibbous
Aug 23
Last Quarter
Aug 30
New
Sep 5
First Quarter
Sep 13
Full

Hourly Weather History & Observations

Time (CDT) Temp. Dew Point Humidity Pressure Visibility Wind Dir Wind Speed Gust Speed Precip Events Conditions
12:15 AM 57.2 °F 57.2 °F 100% 29.81 in 10.0 mi NW 8.1 mph - N/A   Overcast
12:35 AM 57.2 °F 57.2 °F 100% 29.82 in 10.0 mi WNW 9.2 mph - N/A   Overcast
12:55 AM 57.2 °F 57.2 °F 100% 29.82 in 10.0 mi WNW 8.1 mph - N/A   Overcast
1:15 AM 57.2 °F 57.2 °F 100% 29.81 in 10.0 mi WNW 10.4 mph - N/A   Mostly Cloudy
1:35 AM - - N/A% 29.81 in 10.0 mi WNW 11.5 mph - N/A   Mostly Cloudy
1:55 AM - - N/A% 29.81 in 10.0 mi WNW 11.5 mph - N/A   Mostly Cloudy
2:15 AM 55.4 °F 55.4 °F 100% 29.81 in 10.0 mi WNW 11.5 mph - N/A   Overcast
2:35 AM 55.4 °F 55.4 °F 100% 29.80 in 10.0 mi WNW 13.8 mph - N/A   Mostly Cloudy
2:55 AM 55.4 °F 55.4 °F 100% 29.81 in 10.0 mi WNW 12.7 mph - N/A   Mostly Cloudy
3:15 AM 53.6 °F 53.6 °F 100% 29.81 in 10.0 mi WNW 9.2 mph - N/A   Mostly Cloudy
3:35 AM 53.6 °F 53.6 °F 100% 29.81 in 10.0 mi NW 11.5 mph - N/A   Partly Cloudy
3:55 AM 51.8 °F 51.8 °F 100% 29.81 in 10.0 mi WNW 9.2 mph - N/A   Clear
4:15 AM 51.8 °F 51.8 °F 100% 29.81 in 10.0 mi WNW 10.4 mph - N/A   Clear
4:35 AM 51.8 °F 51.8 °F 100% 29.82 in 10.0 mi WNW 10.4 mph - N/A   Clear
5:15 AM 50.0 °F 50.0 °F 100% 29.81 in 10.0 mi WNW 9.2 mph - N/A   Clear
5:35 AM 50.0 °F 50.0 °F 100% 29.81 in 10.0 mi West 8.1 mph - N/A   Clear
5:55 AM 50.0 °F 50.0 °F 100% 29.82 in 10.0 mi WNW 9.2 mph - N/A   Clear
6:15 AM 50.0 °F 50.0 °F 100% 29.82 in 10.0 mi West 9.2 mph - N/A   Clear
6:35 AM 50.0 °F 50.0 °F 100% 29.83 in 10.0 mi West 9.2 mph - N/A   Clear
6:55 AM 50.0 °F 50.0 °F 100% 29.83 in 10.0 mi West 10.4 mph - N/A   Clear
7:15 AM 50.0 °F 50.0 °F 100% 29.83 in 10.0 mi West 11.5 mph - N/A   Clear
7:35 AM 51.8 °F 51.8 °F 100% 29.84 in 10.0 mi West 12.7 mph - N/A   Clear
7:55 AM 51.8 °F 51.8 °F 100% 29.84 in 10.0 mi West 12.7 mph - N/A   Clear
8:15 AM 51.8 °F 51.8 °F 100% 29.84 in 10.0 mi West 10.4 mph - N/A   Clear
8:35 AM 53.6 °F 53.6 °F 100% 29.85 in 10.0 mi West 10.4 mph - N/A   Clear
8:55 AM 55.4 °F 51.8 °F 88% 29.86 in 10.0 mi West 12.7 mph - N/A   Clear
9:15 AM 57.2 °F 51.8 °F 82% 29.87 in 10.0 mi West 9.2 mph - N/A   Clear
9:35 AM 59.0 °F 53.6 °F 82% 29.87 in 10.0 mi West 8.1 mph - N/A   Clear
9:55 AM 60.8 °F 51.8 °F 72% 29.88 in 10.0 mi West 9.2 mph - N/A   Clear
10:15 AM 62.6 °F 51.8 °F 68% 29.89 in 10.0 mi West 10.4 mph - N/A   Clear
10:35 AM 62.6 °F 51.8 °F 68% 29.88 in 10.0 mi WNW 9.2 mph - N/A   Clear
10:55 AM 64.4 °F 51.8 °F 64% 29.88 in 10.0 mi WNW 10.4 mph - N/A   Clear
11:15 AM 64.4 °F 51.8 °F 64% 29.89 in 10.0 mi West 10.4 mph - N/A   Clear
11:35 AM 66.2 °F 51.8 °F 60% 29.89 in 10.0 mi WNW 10.4 mph - N/A   Clear
11:55 AM 66.2 °F 50.0 °F 56% 29.89 in 10.0 mi West 11.5 mph - N/A   Clear
12:15 PM 66.2 °F 50.0 °F 56% 29.89 in 10.0 mi West 12.7 mph - N/A   Clear
12:35 PM 66.2 °F 48.2 °F 52% 29.89 in 10.0 mi West 13.8 mph - N/A   Clear
12:55 PM 68.0 °F 50.0 °F 52% 29.90 in 10.0 mi West 12.7 mph - N/A   Clear
1:15 PM 68.0 °F 48.2 °F 49% 29.90 in 10.0 mi WNW 11.5 mph - N/A   Clear
1:35 PM 68.0 °F 48.2 °F 49% 29.90 in 10.0 mi WSW 12.7 mph - N/A   Clear
1:55 PM 68.0 °F 46.4 °F 46% 29.91 in 10.0 mi West 12.7 mph 20.7 mph N/A   Clear
2:15 PM 69.8 °F 48.2 °F 46% 29.90 in 10.0 mi WSW 10.4 mph 17.3 mph N/A   Partly Cloudy
2:35 PM 69.8 °F 48.2 °F 46% 29.90 in 10.0 mi West 13.8 mph - N/A   Scattered Clouds
2:55 PM 69.8 °F 46.4 °F 43% 29.90 in 10.0 mi WSW 12.7 mph - N/A   Clear
3:15 PM 69.8 °F 44.6 °F 40% 29.90 in 10.0 mi West 10.4 mph 18.4 mph N/A   Clear
3:35 PM 69.8 °F 44.6 °F 40% 29.89 in 10.0 mi West 8.1 mph 19.6 mph N/A   Clear
3:55 PM 71.6 °F 44.6 °F 38% 29.89 in 10.0 mi WSW 8.1 mph 15.0 mph N/A   Clear
4:15 PM 71.6 °F 44.6 °F 38% 29.88 in 10.0 mi SW 10.4 mph 18.4 mph N/A   Clear
4:35 PM 71.6 °F 44.6 °F 38% 29.88 in 10.0 mi West 15.0 mph - N/A   Clear
4:55 PM 69.8 °F 46.4 °F 43% 29.87 in 10.0 mi West 11.5 mph - N/A   Clear
5:15 PM 71.6 °F 46.4 °F 41% 29.87 in 10.0 mi West 11.5 mph - N/A   Clear
5:35 PM 71.6 °F 46.4 °F 41% 29.87 in 10.0 mi West 6.9 mph 15.0 mph N/A   Clear
5:55 PM 69.8 °F 46.4 °F 43% 29.87 in 10.0 mi WSW 12.7 mph - N/A   Clear
6:15 PM 69.8 °F 46.4 °F 43% 29.86 in 10.0 mi WSW 10.4 mph 17.3 mph N/A   Clear
6:35 PM 69.8 °F 48.2 °F 46% 29.86 in 10.0 mi WSW 9.2 mph - N/A   Clear
6:55 PM 69.8 °F 48.2 °F 46% 29.86 in 10.0 mi SW 9.2 mph 15.0 mph N/A   Clear
7:15 PM 68.0 °F 50.0 °F 52% 29.86 in 10.0 mi WSW 9.2 mph - N/A   Clear
7:35 PM 66.2 °F 50.0 °F 56% 29.86 in 10.0 mi SW 8.1 mph - N/A   Clear
7:55 PM 66.2 °F 50.0 °F 56% 29.86 in 10.0 mi SW 8.1 mph - N/A   Clear
8:15 PM 62.6 °F 51.8 °F 68% 29.86 in 10.0 mi SW 6.9 mph - N/A   Clear
8:35 PM 60.8 °F 51.8 °F 72% 29.87 in 10.0 mi SW 6.9 mph - N/A   Clear
8:55 PM 59.0 °F 53.6 °F 82% 29.87 in 10.0 mi SW 8.1 mph - N/A   Clear
9:15 PM 57.2 °F 53.6 °F 88% 29.87 in 10.0 mi SSW 6.9 mph - N/A   Clear
9:35 PM 57.2 °F 53.6 °F 88% 29.88 in 10.0 mi SSW 6.9 mph - N/A   Clear
9:55 PM 55.4 °F 53.6 °F 94% 29.88 in 10.0 mi South 4.6 mph - N/A   Clear
10:15 PM 55.4 °F 53.6 °F 94% 29.88 in 10.0 mi South 5.8 mph - N/A   Clear
10:35 PM 53.6 °F 53.6 °F 100% 29.88 in 10.0 mi South 5.8 mph - N/A   Clear
10:55 PM 53.6 °F 53.6 °F 100% 29.88 in 10.0 mi South 6.9 mph - N/A   Clear
11:15 PM 53.6 °F 53.6 °F 100% 29.89 in 10.0 mi South 8.1 mph - N/A   Clear
11:35 PM 53.6 °F 53.6 °F 100% 29.89 in 10.0 mi South 8.1 mph - N/A   Clear
11:55 PM 53.6 °F 53.6 °F 100% 29.89 in 10.0 mi SSW 9.2 mph - N/A   Clear